STARLINK-4587, 53635

Orbit data source: Space-Track

STARLINK-4587, 53635 is a payload satellite owned by SpaceX/Seattle (US) in LEO that was launched on Sun, 28 Aug 2022 UTC via an FALCON 9 launch vehicle from the Air Force Eastern Test Range (AFETR). Payload-class satellites include a variety of spacecraft equipped with specific instruments for various scientific and technological missions. These include communications satellites like Starlink; space stations such as the ISS; scientific satellites like the Hubble; Earth observation satellites from companies like Planet Labs, Umbra, and HawkEye 360; GPS; miniature CubeSats for education and research; and military/defense satellites.

Loading next visibility...
Identifier
53635, 2022-104AZ
Orbit
LEO
Country
Flag of USUS
Related business
Manufacturer
SpaceX/Seattle
Mission
Operational Commercial Communications
Bus & Motor
STARLINK, Unknown motor
Mass
300 kg wet, ~290 kg dry
Launch date (UTC)
2022-08-28 (3 years ago)
Launch vehicle
FALCON 9
Launch site
Air Force Eastern Test Range (AFETR)
Object type
Payload
Rocket body
Debris
Shape & HBR
Box + 1 Pan, 10.1 m
Radar Cross Section
13.562 m², Large (>1 m²)

Expand to show TLE details & history
Last TLE update: 10 hours ago

TLE from 10 hours ago
0 STARLINK-4587
1 53635U 22104AZ  25343.10116763  .00046435  00000-0  27032-2 0  9991
2 53635  53.2176 270.4990 0001463  91.5203 268.5958 15.11602352182553
Epoch: 2025-12-09T02:25Z
TLE epoch observation values (Epoch: 2025-12-09T02:25:40.883Z)
Latitude
-0.00001°
Longitude
155.98796°
Altitude
532.236 km
Speed
7.598 km/s
True Right ascension
18h 01m 59s
True Declination
0° 00' 00"
Sunlit
Object was in daylight at epoch
Visualization orbit readout
Latitude
Unknown
Longitude
Unknown
Altitude
Unknown
Speed
Unknown
Apparent Right ascension
Unknown
Apparent Declination
Unknown
Sunlit
N/A
Visualization observer readout
Local Sidereal Time
10:53:14
Azimuth
Unknown
Elevation
Unknown
Doppler factor
Unknown
Orbital elements
Apogee altitude
532.569 km
Perigee altitude
530.547 km
Semi-major axis
6,909.695 km
Eccentricity
0.00015
Inclination
53.2176°
RAAN
270.499°
Arg. of periapsis
91.5203°
True anomaly
268.57904°
Mean anomaly
268.5958°
Eccentric anomaly
268.58742°
Mean motion
3.77881 °/min
Orbital period
95.27 mins
BSTAR
0.0027032
Loading maneuver chart data...
Computing Atmospheric mass density...
Loading historical data...
Loading historical data...
Loading historical data...
Loading historical data...
Loading historical data...
Loading historical data...
Loading historical data...

Documentation

Showing up to 5 results
|